| time (UTC) | temp C | wind direction | speed KPH | gust KPH | rain 1hr cm | rain 24hr cm | rain mn cm | humidity % | barometer mb |
| 20260508185308 | 11 | 248 | 29.0 | 43.5 | 0.00 | 0.00 | 0.00 | 47 | 1008.5 |
| 20260508184303 | 11 | 270 | 27.4 | 46.7 | 0.00 | 0.00 | 0.00 | 48 | 1008.3 |
| 20260508183255 | 12 | 270 | 19.3 | 43.5 | 0.00 | 0.00 | 0.00 | 50 | 1008.2 |
| 20260508182249 | 12 | 248 | 24.1 | 40.2 | 0.00 | 0.00 | 0.00 | 50 | 1008.3 |
| 20260508181243 | 12 | 338 | 24.1 | 48.3 | 0.00 | 0.00 | 0.00 | 50 | 1008.2 |
| 20260508180237 | 11 | 225 | 24.1 | 43.5 | 0.00 | 0.00 | 0.00 | 50 | 1008.3 |
| 20260508175231 | 12 | 225 | 22.5 | 43.5 | 0.00 | 0.00 | 0.00 | 51 | 1008.5 |
| 20260508174225 | 11 | 225 | 19.3 | 48.3 | 0.00 | 0.00 | 0.00 | 51 | 1008.4 |
| 20260508173220 | 11 | 293 | 27.4 | 43.5 | 0.00 | 0.00 | 0.00 | 51 | 1008.3 |
| 20260508171206 | 11 | 270 | 25.7 | 46.7 | 0.00 | 0.00 | 0.00 | 53 | 1008.5 |
| 20260508170200 | 11 | 293 | 12.9 | 48.3 | 0.00 | 0.00 | 0.00 | 55 | 1008.3 |
| 20260508165154 | 11 | 270 | 19.3 | 51.5 | 0.00 | 0.00 | 0.00 | 54 | 1008.5 |
| 20260508164147 | 11 | 270 | 17.7 | 43.5 | 0.00 | 0.00 | 0.00 | 57 | 1008.5 |
| 20260508163141 | 11 | 248 | 17.7 | 43.5 | 0.00 | 0.00 | 0.00 | 57 | 1008.6 |
| 20260508162135 | 11 | 248 | 24.1 | 43.5 | 0.00 | 0.00 | 0.00 | 57 | 1008.7 |
| 20260508161128 | 10 | 270 | 24.1 | 43.5 | 0.00 | 0.00 | 0.00 | 58 | 1008.8 |
| 20260508160122 | 10 | 293 | 24.1 | 40.2 | 0.00 | 0.00 | 0.00 | 59 | 1008.9 |
| 20260508155120 | 10 | 270 | 17.7 | 43.5 | 0.00 | 0.00 | 0.00 | 60 | 1009.0 |
| 20260508154110 | 10 | 225 | 30.6 | 43.5 | 0.00 | 0.00 | 0.00 | 59 | 1008.9 |
| 20260508153104 | 10 | 248 | 17.7 | 43.5 | 0.00 | 0.00 | 0.00 | 61 | 1009.2 |
| 20260508152058 | 10 | 248 | 27.4 | 43.5 | 0.00 | 0.00 | 0.00 | 61 | 1009.0 |
| 20260508151052 | 10 | 270 | 17.7 | 43.5 | 0.00 | 0.00 | 0.00 | 61 | 1009.4 |
| 20260508150100 | 10 | 270 | 22.5 | 38.6 | 0.00 | 0.00 | 0.00 | 62 | 1009.2 |
| 20260508145039 | 9 | 293 | 24.1 | 43.5 | 0.00 | 0.00 | 0.00 | 62 | 1009.1 |
| 20260508144035 | 9 | 270 | 27.4 | 43.5 | 0.00 | 0.00 | 0.00 | 63 | 1009.3 |
| 20260508143032 | 9 | 203 | 20.9 | 43.5 | 0.00 | 0.00 | 0.00 | 64 | 1009.3 |
| 20260508142040 | 9 | 315 | 17.7 | 43.5 | 0.00 | 0.00 | 0.00 | 64 | 1009.4 |
| 20260508141014 | 9 | 225 | 22.5 | 48.3 | 0.00 | 0.00 | 0.00 | 65 | 1009.6 |
| 20260508140008 | 8 | 270 | 24.1 | 46.7 | 0.00 | 0.00 | 0.00 | 64 | 1009.7 |
| 20260508135003 | 8 | 270 | 17.7 | 43.5 | 0.00 | 0.00 | 0.00 | 66 | 1009.4 |
| 20260508133955 | 7 | 293 | 11.3 | 35.4 | 0.00 | 0.00 | 0.00 | 69 | 1009.4 |
| 20260508132949 | 7 | 338 | 22.5 | 40.2 | 0.00 | 0.00 | 0.00 | 68 | 1009.5 |
| 20260508131943 | 7 | 248 | 22.5 | 46.7 | 0.00 | 0.00 | 0.00 | 67 | 1009.4 |
| 20260508130937 | 7 | 270 | 17.7 | 48.3 | 0.00 | 0.00 | 0.00 | 68 | 1009.3 |
| 20260508125931 | 7 | 270 | 27.4 | 40.2 | 0.00 | 0.00 | 0.00 | 68 | 1009.2 |
| 20260508124925 | 8 | 270 | 22.5 | 43.5 | 0.00 | 0.00 | 0.00 | 68 | 1009.0 |
| 20260508123920 | 8 | 293 | 24.1 | 49.9 | 0.00 | 0.00 | 0.00 | 69 | 1009.0 |
| 20260508122913 | 8 | 293 | 33.8 | 49.9 | 0.00 | 0.00 | 0.00 | 69 | 1009.1 |
| 20260508121906 | 8 | 315 | 17.7 | 43.5 | 0.00 | 0.00 | 0.00 | 71 | 1008.7 |
| 20260508120901 | 8 | 270 | 22.5 | 38.6 | 0.00 | 0.00 | 0.00 | 69 | 1008.5 |
| 20260508115853 | 8 | 293 | 12.9 | 43.5 | 0.00 | 0.00 | 0.00 | 70 | 1008.7 |
| 20260508114847 | 8 | 225 | 17.7 | 37.0 | 0.00 | 0.00 | 0.00 | 70 | 1008.7 |
| 20260508113841 | 8 | 270 | 19.3 | 38.6 | 0.00 | 0.00 | 0.00 | 73 | 1008.6 |
| 20260508112835 | 7 | 270 | 14.5 | 37.0 | 0.00 | 0.00 | 0.00 | 74 | 1008.5 |
| 20260508111830 | 7 | 293 | 16.1 | 43.5 | 0.00 | 0.00 | 0.00 | 74 | 1008.4 |
| 20260508110823 | 7 | 270 | 27.4 | 43.5 | 0.00 | 0.00 | 0.00 | 74 | 1008.3 |
| 20260508105818 | 7 | 293 | 14.5 | 37.0 | 0.00 | 0.00 | 0.00 | 75 | 1008.2 |
| 20260508104811 | 8 | 225 | 24.1 | 46.7 | 0.00 | 0.00 | 0.00 | 76 | 1008.0 |
| 20260508102757 | 8 | 270 | 19.3 | 40.2 | 0.00 | 0.00 | 0.00 | 77 | 1007.7 |
| 20260508101752 | 8 | 203 | 12.9 | 38.6 | 0.00 | 0.00 | 0.00 | 78 | 1007.7 |
| 20260508100745 | 8 | 225 | 12.9 | 35.4 | 0.00 | 0.00 | 0.00 | 79 | 1007.6 |
| 20260508095740 | 8 | 248 | 20.9 | 43.5 | 0.00 | 0.00 | 0.00 | 79 | 1007.4 |
| 20260508094734 | 8 | 225 | 9.7 | 38.6 | 0.00 | 0.00 | 0.00 | 79 | 1007.4 |
| 20260508093727 | 8 | 248 | 16.1 | 43.5 | 0.00 | 0.00 | 0.00 | 79 | 1007.3 |
| 20260508092722 | 8 | 270 | 17.7 | 38.6 | 0.00 | 0.00 | 0.00 | 79 | 1007.2 |
| 20260508091714 | 8 | 248 | 19.3 | 40.2 | 0.00 | 0.00 | 0.00 | 80 | 1006.9 |
| 20260508090708 | 8 | 270 | 17.7 | 43.5 | 0.00 | 0.00 | 0.00 | 80 | 1006.9 |
| 20260508085702 | 8 | 225 | 12.9 | 35.4 | 0.00 | 0.00 | 0.00 | 81 | 1007.0 |
| 20260508084656 | 8 | 270 | 16.1 | 40.2 | 0.00 | 0.00 | 0.00 | 82 | 1006.9 |
| 20260508083649 | 8 | 225 | 19.3 | 37.0 | 0.00 | 0.00 | 0.00 | 81 | 1006.7 |
| 20260508082644 | 8 | 225 | 17.7 | 38.6 | 0.00 | 0.00 | 0.00 | 82 | 1006.9 |
| 20260508081637 | 8 | 270 | 12.9 | 40.2 | 0.00 | 0.00 | 0.00 | 82 | 1006.8 |
| 20260508080631 | 8 | 248 | 22.5 | 37.0 | 0.00 | 0.00 | 0.00 | 82 | 1006.7 |
| 20260508075625 | 7 | 248 | 17.7 | 33.8 | 0.00 | 0.00 | 0.00 | 85 | 1006.8 |
| 20260508074620 | 7 | 270 | 14.5 | 29.0 | 0.00 | 0.00 | 0.00 | 88 | 1006.8 |
| 20260508073614 | 7 | 248 | 16.1 | 32.2 | 0.00 | 0.00 | 0.00 | 89 | 1006.7 |
| 20260508072606 | 7 | 203 | 11.3 | 29.0 | 0.00 | 0.00 | 0.00 | 89 | 1006.8 |
| 20260508071600 | 7 | 248 | 16.1 | 38.6 | 0.00 | 0.00 | 0.00 | 87 | 1006.8 |
| 20260508070554 | 8 | 225 | 17.7 | 37.0 | 0.00 | 0.00 | 0.00 | 84 | 1007.2 |
| 20260508065548 | 8 | 293 | 12.9 | 38.6 | 0.00 | 0.00 | 0.00 | 77 | 1007.1 |
| 20260508064542 | 8 | 270 | 17.7 | 48.3 | 0.00 | 0.00 | 0.00 | 75 | 1007.0 |
| 20260508063535 | 8 | 270 | 20.9 | 43.5 | 0.00 | 0.00 | 0.00 | 74 | 1007.1 |
| 20260508062530 | 8 | 270 | 14.5 | 33.8 | 0.00 | 0.00 | 0.00 | 74 | 1007.1 |
| 20260508061523 | 9 | 248 | 17.7 | 37.0 | 0.00 | 0.00 | 0.00 | 73 | 1007.3 |
| 20260508060520 | 9 | 225 | 19.3 | 35.4 | 0.00 | 0.00 | 0.00 | 74 | 1007.3 |
| 20260508055518 | 9 | 248 | 24.1 | 40.2 | 0.00 | 0.03 | 0.00 | 75 | 1007.4 |
| 20260508054505 | 9 | 248 | 16.1 | 37.0 | 0.00 | 0.03 | 0.00 | 74 | 1007.6 |
| 20260508053458 | 9 | 248 | 16.1 | 33.8 | 0.00 | 0.03 | 0.00 | 73 | 1007.4 |
| 20260508052452 | 9 | 248 | 16.1 | 46.7 | 0.00 | 0.03 | 0.00 | 72 | 1007.5 |
| 20260508051446 | 9 | 225 | 20.9 | 46.7 | 0.00 | 0.03 | 0.00 | 71 | 1007.2 |
| 20260508050439 | 9 | 248 | 17.7 | 33.8 | 0.00 | 0.03 | 0.00 | 73 | 1007.3 |
| 20260508045434 | 9 | 270 | 17.7 | 43.5 | 0.00 | 0.03 | 0.00 | 74 | 1007.1 |
| 20260508044427 | 9 | 225 | 20.9 | 43.5 | 0.00 | 0.03 | 0.00 | 73 | 1007.4 |
| 20260508043422 | 9 | 180 | 22.5 | 35.4 | 0.00 | 0.03 | 0.00 | 73 | 1007.3 |
| 20260508042417 | 9 | 225 | 11.3 | 40.2 | 0.00 | 0.03 | 0.00 | 76 | 1007.6 |
| 20260508041410 | 9 | 270 | 12.9 | 32.2 | 0.00 | 0.03 | 0.00 | 77 | 1007.5 |
| 20260508040403 | 9 | 270 | 14.5 | 29.0 | 0.00 | 0.03 | 0.00 | 78 | 1007.3 |
| 20260508035357 | 8 | 225 | 8.0 | 35.4 | 0.00 | 0.03 | 0.00 | 80 | 1007.3 |
| 20260508034350 | 8 | 248 | 12.9 | 29.0 | 0.00 | 0.03 | 0.00 | 79 | 1007.0 |
| 20260508033344 | 8 | 248 | 16.1 | 29.0 | 0.00 | 0.03 | 0.00 | 80 | 1007.1 |
| 20260508032338 | 8 | 248 | 9.7 | 32.2 | 0.00 | 0.03 | 0.00 | 81 | 1007.4 |
| 20260508031332 | 8 | 248 | 9.7 | 37.0 | 0.00 | 0.03 | 0.00 | 82 | 1007.2 |
| 20260508030326 | 8 | 225 | 17.7 | 37.0 | 0.00 | 0.03 | 0.00 | 83 | 1007.4 |
| 20260508024313 | 8 | 248 | 12.9 | 33.8 | 0.00 | 0.03 | 0.03 | 85 | 1007.4 |
| 20260508023306 | 8 | 248 | 6.4 | 27.4 | 0.00 | 0.03 | 0.03 | 86 | 1007.4 |
| 20260508022300 | 8 | 248 | 16.1 | 33.8 | 0.00 | 0.03 | 0.03 | 88 | 1007.6 |
| 20260508021255 | 8 | 180 | 16.1 | 32.2 | 0.00 | 0.03 | 0.03 | 89 | 1007.3 |
| 20260508020248 | 8 | 248 | 17.7 | 38.6 | 0.00 | 0.03 | 0.03 | 90 | 1007.5 |
| 20260508015242 | 8 | 270 | 22.5 | 46.7 | 0.00 | 0.03 | 0.03 | 91 | 1007.4 |
| 20260508014236 | 8 | 225 | 20.9 | 38.6 | 0.00 | 0.03 | 0.03 | 93 | 1007.2 |
| 20260508013231 | 8 | 248 | 17.7 | 43.5 | 0.00 | 0.03 | 0.03 | 94 | 1007.8 |
| 20260508012224 | 8 | 225 | 17.7 | 35.4 | 0.00 | 0.03 | 0.03 | 94 | 1007.6 |
| 20260508011219 | 8 | 248 | 16.1 | 33.8 | 0.00 | 0.03 | 0.03 | 95 | 1007.3 |
| 20260508010211 | 8 | 225 | 12.9 | 43.5 | 0.00 | 0.03 | 0.03 | 95 | 1007.4 |
| 20260508005204 | 8 | 203 | 12.9 | 32.2 | 0.00 | 0.03 | 0.03 | 95 | 1007.5 |
| 20260508004159 | 9 | 225 | 17.7 | 40.2 | 0.00 | 0.03 | 0.03 | 95 | 1007.5 |
| 20260508003153 | 9 | 225 | 16.1 | 37.0 | 0.00 | 0.03 | 0.03 | 95 | 1007.4 |
| 20260508002147 | 9 | 270 | 19.3 | 38.6 | 0.00 | 0.03 | 0.03 | 94 | 1007.5 |
| 20260508001141 | 10 | 248 | 17.7 | 43.5 | 0.00 | 0.03 | 0.03 | 92 | 1007.4 |
| 20260508000134 | 10 | 270 | 17.7 | 37.0 | 0.00 | 0.03 | 0.03 | 90 | 1007.4 |
| 20260507235128 | 10 | 248 | 25.7 | 46.7 | 0.00 | 0.03 | 0.03 | 90 | 1007.2 |
| 20260507234122 | 10 | 270 | 22.5 | 35.4 | 0.00 | 0.03 | 0.03 | 89 | 1007.3 |
| 20260507233118 | 10 | 293 | 14.5 | 35.4 | 0.00 | 0.03 | 0.03 | 90 | 1007.0 |
| 20260507232110 | 10 | 248 | 17.7 | 37.0 | 0.00 | 0.03 | 0.03 | 89 | 1007.4 |
| 20260507231103 | 10 | 248 | 17.7 | 46.7 | 0.00 | 0.03 | 0.03 | 89 | 1007.3 |
| 20260507230110 | 10 | 203 | 12.9 | 40.2 | 0.00 | 0.03 | 0.03 | 89 | 1007.1 |
| 20260507225050 | 11 | 270 | 25.7 | 37.0 | 0.00 | 0.05 | 0.03 | 90 | 1006.5 |
| 20260507224044 | 11 | 270 | 17.7 | 32.2 | 0.00 | 0.05 | 0.03 | 90 | 1006.5 |
| 20260507223051 | 11 | 248 | 16.1 | 33.8 | 0.00 | 0.05 | 0.03 | 89 | 1006.1 |
| 20260507222047 | 11 | 135 | 22.5 | 38.6 | 0.00 | 0.05 | 0.03 | 89 | 1006.3 |
| 20260507221033 | 11 | 225 | 12.9 | 35.4 | 0.00 | 0.05 | 0.03 | 89 | 1006.1 |
| 20260507220026 | 11 | 225 | 16.1 | 43.5 | 0.00 | 0.05 | 0.03 | 88 | 1005.9 |
| 20260507215014 | 11 | 315 | 17.7 | 43.5 | 0.00 | 0.05 | 0.03 | 87 | 1006.1 |
| 20260507214010 | 11 | 225 | 17.7 | 38.6 | 0.00 | 0.05 | 0.03 | 87 | 1006.0 |
| 20260507213001 | 11 | 248 | 17.7 | 37.0 | 0.00 | 0.05 | 0.03 | 87 | 1005.7 |
| 20260507211955 | 11 | 248 | 19.3 | 35.4 | 0.00 | 0.05 | 0.03 | 88 | 1005.8 |
| 20260507210949 | 11 | 270 | 17.7 | 43.5 | 0.00 | 0.05 | 0.03 | 88 | 1006.0 |
| 20260507205943 | 11 | 270 | 24.1 | 33.8 | 0.00 | 0.05 | 0.03 | 90 | 1005.9 |
| 20260507204936 | 11 | 270 | 17.7 | 43.5 | 0.00 | 0.05 | 0.03 | 89 | 1005.5 |
| 20260507203930 | 11 | 270 | 24.1 | 43.5 | 0.00 | 0.05 | 0.03 | 89 | 1005.7 |
| 20260507202926 | 11 | 270 | 22.5 | 46.7 | 0.00 | 0.05 | 0.03 | 88 | 1005.7 |
| 20260507201920 | 11 | 270 | 17.7 | 43.5 | 0.00 | 0.05 | 0.03 | 91 | 1005.3 |
| 20260507200912 | 11 | 270 | 24.1 | 43.5 | 0.00 | 0.05 | 0.03 | 94 | 1005.1 |
| 20260507195905 | 11 | 225 | 19.3 | 38.6 | 0.00 | 0.05 | 0.03 | 94 | 1004.9 |
| 20260507194858 | 11 | 0 | 16.1 | 38.6 | 0.00 | 0.05 | 0.03 | 95 | 1004.8 |
| 20260507193854 | 11 | 248 | 14.5 | 27.4 | 0.00 | 0.05 | 0.03 | 94 | 1004.9 |
| 20260507192846 | 12 | 248 | 12.9 | 27.4 | 0.00 | 0.05 | 0.03 | 93 | 1004.5 |
| 20260507191840 | 12 | 270 | 12.9 | 29.0 | 0.00 | 0.05 | 0.03 | 91 | 1005.2 |
| 20260507190833 | 12 | 270 | 16.1 | 33.8 | 0.00 | 0.05 | 0.03 | 89 | 1005.6 |
| 20260507185828 | 12 | 270 | 16.1 | 29.0 | 0.00 | 0.05 | 0.03 | 89 | 1005.9 |